Location: Moscow
(38.8570°N, 84.2291°W)
Time: 11:55:40
(UTC+00:00)

STRAND 1 - Visible Passes

Search period start: 15 March 2026 00:00
Search period end: 25 March 2026 00:00
Orbit: 761 x 775 km, 98.4° (Epoch: 14 March)

Date Brightness Start Highest point End Pass type
(mag) Time Alt. Az. Time Alt. Az. Time Alt. Az.
15 Mar ? 00:26:55 10° N 00:31:15 29° WNW 00:35:33 10° SW visible
15 Mar ? 10:01:23 10° SE 10:06:03 38° ENE 10:10:44 10° N visible
16 Mar ? 09:27:05 10° ESE 09:30:28 18° ENE 09:33:49 10° NNE visible
16 Mar ? 11:04:05 10° S 11:09:04 53° W 11:14:03 10° NNW visible
17 Mar ? 00:55:02 10° NNW 00:58:09 17° WNW 01:01:16 10° WSW visible
17 Mar ? 10:28:04 10° SSE 10:33:08 69° ENE 10:38:12 10° N visible
18 Mar ? 00:18:00 10° N 00:22:34 35° WNW 00:27:07 10° SW visible
18 Mar ? 09:52:56 10° SE 09:57:23 31° ENE 10:01:50 10° N visible
19 Mar ? 09:19:00 10° E 09:21:50 15° ENE 09:24:39 10° NNE visible
19 Mar ? 10:55:15 10° S 11:00:19 65° WSW 11:05:23 10° NNW visible
20 Mar ? 00:45:55 10° NNW 00:49:31 20° WNW 00:53:06 10° WSW visible
20 Mar ? 10:19:26 10° SSE 10:24:25 57° ENE 10:29:25 10° N visible
21 Mar ? 00:09:08 10° N 00:13:53 42° WNW 00:18:36 10° SW visible
21 Mar ? 09:44:32 10° ESE 09:48:43 26° ENE 09:52:54 10° NNE visible
22 Mar ? 01:15:00 10° NW 01:16:20 11° WNW 01:17:41 10° WNW visible
22 Mar ? 09:11:09 10° E 09:13:12 12° ENE 09:15:16 10° NE visible
22 Mar ? 10:46:28 10° S 10:51:33 79° WSW 10:56:40 10° NNW visible
23 Mar ? 00:36:54 10° NNW 00:40:51 24° WNW 00:44:49 10° WSW visible
23 Mar ? 10:10:52 10° SE 10:15:43 47° ENE 10:20:34 10° N visible
24 Mar ? 09:36:13 10° ESE 09:40:03 22° ENE 09:43:53 10° NNE visible
